User: anonymous   Login
Location: Unspecified
(0.0000°N, 0.0000°E)
Time: 21:44:00
(UTC+00:00)
Language:

AMOS 1 - Orbit

View from above orbital plane
View from above orbital plane
View from above satellite
View from above satellite

Ground track
Ground track

The orbit data is extracted from the following two-line orbital elements,

1 23865U 96030B   14351.56036133 -.00000039  00000-0  00000+0 0  1997
2 23865 005.4216 060.7604 0010159 105.7966 018.1544 00.97116367 67788
Epoch (UTC): 17 December 2014 13:26:55
Eccentricity: 0.0010159
inclination: 5.4216°
perigee height: 36651 km
apogee height: 36738 km
right ascension of ascending node: 60.7604°
argument of perigee: 105.7966°
revolutions per day: 0.97116367
mean anomaly at epoch: 18.1544°
orbit number at epoch: 6778

The dashed part of the orbit path shows where the satellite is in the earth's shadow,  

DLR